CAPE
0 0 5 630 834 1077 1211 1210 1178 1176 1337 1015 741 666 1009 1165 634 503 404 237 103 37 20 0 0 4 74 205 318 486 216 176 198 440 591 839 702 744 753 752 822 891 1011
0 0 0 488 625 847 1022 1232 1281 1252 1465 1242 1263 1262 1135 1125 1060 737 507 368 249 32 0 1 0 0 4 36 167 140 98 140 211 210 523 423 624 482 667 690 885 938 1028
0 0 0 134 253 341 627 771 890 885 994 1002 1062 1066 1022 980 771 730 830 571 415 256 59 1 1 0 0 0 0 84 43 88 160 115 357 528 411 577 552 552 715 936 976
0 0 0 86 91 111 75 64 168 53 58 77 328 863 826 771 707 679 608 589 508 437 348 173 63 24 17 0 0 32 0 0 0 18 85 303 358 335 455 437 521 795 873
0 0 0 46 43 44 35 41 32 19 14 18 60 123 514 622 509 574 506 421 351 305 240 230 284 186 152 155 80 17 11 0 0 0 25 205 513 584 374 316 374 645 825
0 0 0 38 31 13 10 12 16 16 14 13 9 16 23 20 22 20 31 115 185 249 308 299 222 183 260 199 206 251 241 7 0 0 0 0 37 367 708 512 682 597 723
0 0 0 18 21 12 11 7 11 8 5 6 7 8 7 9 7 8 6 7 7 10 10 51 269 248 259 216 198 149 230 95 0 0 0 0 0 8 603 620 505 485 359
0 0 0 0 6 8 10 6 3 1 0 0 0 0 2 5 8 6 7 7 9 7 9 7 4 31 225 238 210 169 194 6 0 0 0 0 0 5 128 418 423 294 207
0 0 0 0 0 0 0 0 0 0 0 0 0 0 0 0 0 0 0 1 4 5 8 6 3 1 3 99 169 126 117 15 33 0 0 0 0 7 277 479 537 485 298
0 0 0 0 0 0 0 0 0 0 0 0 0 0 0 0 0 0 0 0 0 0 2 4 2 0 0 0 1 1 0 0 25 2 0 0 0 0 176 392 321 619 679
0 0 0 0 0 0 0 0 0 0 0 0 0 0 0 0 0 0 0 0 0 0 0 0 0 0 0 0 0 0 0 0 2 11 19 0 24 19 0 81 246 338 813
0 0 0 0 0 0 0 0 0 0 0 0 0 0 0 0 0 0 0 0 0 0 0 0 0 0 0 0 0 0 0 0 0 0 1 0 30 276 61 0 297 378 380
0 0 0 0 0 0 0 0 0 0 0 0 0 0 0 0 0 0 0 0 0 0 0 0 0 0 0 0 0 0 0 0 0 0 0 0 0 96 408 6 16 742 626
0 0 0 0 0 0 0 0 0 0 0 0 0 0 0 0 0 0 0 0 0 0 0 0 0 0 0 0 0 0 0 0 0 0 0 0 0 0 12 387 279 748 727
0 0 0 0 0 0 0 0 0 0 0 0 0 0 0 0 0 0 0 0 0 0 0 0 0 0 0 0 0 0 0 0 0 0 0 0 0 0 0 20 406 287 597
0 0 0 0 0 0 0 0 0 0 0 0 0 0 0 0 0 0 0 0 0 0 0 0 0 0 0 0 0 0 0 0 0 0 0 0 0 0 0 0 125 389 413
0 0 0 0 0 0 0 0 0 0 0 0 0 0 0 0 0 0 0 0 0 0 0 0 0 0 0 0 0 0 0 0 0 0 0 0 0 0 0 0 9 189 381
0 0 0 0 0 0 0 0 0 0 0 0 0 0 0 0 0 0 0 0 0 0 0 0 0 0 0 0 0 0 0 0 0 0 0 0 0 0 0 0 0 1 41
0 0 0 0 0 0 0 0 0 0 0 0 0 0 0 0 0 0 0 0 0 0 0 0 0 0 0 0 0 0 0 0 0 0 0 0 0 0 0 0 0 0 0
0 0 0 0 0 0 0 0 0 0 0 0 0 0 0 0 0 0 0 0 0 0 0 0 0 0 0 0 0 0 0 0 0 0 0 0 0 0 1 0 0 0 0
0 0 0 0 0 0 0 0 0 0 0 0 0 0 0 0 0 0 0 0 0 0 0 0 0 0 0 0 0 0 0 0 0 0 0 0 0 0 0 0 0 0 2
0 0 0 0 0 0 0 0 0 0 0 0 0 0 0 0 0 0 0 0 0 0 0 0 0 0 0 0 0 0 0 0 0 0 0 0 0 0 0 0 0 0 0
0 0 0 0 0 0 0 0 0 0 0 0 0 0 0 0 0 0 0 0 0 0 0 0 0 0 0 0 0 0 0 0 0 0 0 0 0 0 0 0 0 0 0
0 0 0 0 0 0 0 0 0 0 0 0 0 0 0 0 0 0 0 0 0 0 0 0 0 0 0 0 0 0 0 0 0 0 0 0 0 0 0 0 0 0 0
0 0 0 0 0 0 0 0 0 0 0 0 0 0 0 0 0 0 0 0 0 0 0 0 0 0 0 0 0 0 0 0 0 0 0 0 0 0 0 0 0 0 0
0 0 0 0 0 0 0 0 0 0 0 0 0 0 0 0 0 0 0 0 0 0 0 0 0 0 0 0 0 0 0 0 0 0 0 0 0 0 0 0 0 0 0
CIN
0 0 0 0 -1 0 0 0 0 0 0 0 0 0 0 0 0 -1 -3 -10 -28 -50 -46 0 0 -37 -11 0 0 0 -1 -15 -18 -11 -10 -3 -4 0 -1 -3 -7 0 0
0 0 0 0 0 0 0 0 0 0 0 0 0 0 0 0 0 0 0 0 -2 -26 0 0 0 0 -1 -15 -1 -2 -12 -9 -19 -26 -17 -15 -8 -9 -5 -7 -6 -2 0
0 0 0 -1 -2 -2 0 0 0 0 0 0 0 0 0 0 0 0 0 0 0 0 -10 -8 0 0 0 0 0 -21 -42 -35 -26 -36 -21 0 0 -3 -7 -10 -5 -4 0
0 0 0 -15 -15 -20 -45 -62 -28 -54 -70 -54 -13 0 0 0 0 0 0 0 0 0 0 0 -2 -22 -32 0 0 -26 0 0 0 -73 -34 -4 -1 -6 -8 -10 -6 -4 0
0 0 0 0 -55 -53 -65 -57 -21 -27 0 -18 -40 -15 0 0 0 0 0 0 0 0 0 0 0 0 0 0 -5 -26 -11 0 0 0 -65 -11 0 -2 -6 -10 -11 -8 -1
0 0 0 0 0 0 0 0 0 0 0 0 0 -1 -1 -1 0 0 -3 -4 0 0 0 0 0 -1 0 0 0 0 0 -14 0 0 0 0 -80 -9 0 -2 -3 -5 -1
0 0 0 0 0 0 0 0 0 0 0 0 0 0 0 0 0 0 0 0 0 0 0 -10 0 0 0 -1 0 0 -1 -11 0 0 0 0 0 -113 0 0 0 -1 -2
0 0 0 0 0 0 0 0 0 0 0 0 0 0 0 0 0 0 0 0 0 0 0 0 0 0 -1 -6 -10 -6 -6 -17 0 0 0 0 0 -18 -9 -5 0 -2 -6
0 0 0 0 0 0 0 0 0 0 0 0 0 0 0 0 0 0 0 0 0 0 0 0 0 0 0 -3 -11 -28 -14 -21 -58 0 0 0 0 -12 -5 -3 -3 0 0
0 0 0 0 0 0 0 0 0 0 0 0 0 0 0 0 0 0 0 0 0 0 0 0 0 0 0 0 0 0 0 0 0 0 0 0 0 0 -12 0 -6 0 0
0 0 0 0 0 0 0 0 0 0 0 0 0 0 0 0 0 0 0 0 0 0 0 0 0 0 0 0 0 0 0 0 0 0 0 0 -70 -16 0 -17 -6 -3 -1
0 0 0 0 0 0 0 0 0 0 0 0 0 0 0 0 0 0 0 0 0 0 0 0 0 0 0 0 0 0 0 0 0 0 0 0 -2 0 -22 0 -5 -6 -3
0 0 0 0 0 0 0 0 0 0 0 0 0 0 0 0 0 0 0 0 0 0 0 0 0 0 0 0 0 0 0 0 0 0 0 0 0 -25 0 -2 -2 0 -1
0 0 0 0 0 0 0 0 0 0 0 0 0 0 0 0 0 0 0 0 0 0 0 0 0 0 0 0 0 0 0 0 0 0 0 0 0 0 -25 0 -1 0 0
0 0 0 0 0 0 0 0 0 0 0 0 0 0 0 0 0 0 0 0 0 0 0 0 0 0 0 0 0 0 0 0 0 0 0 0 0 0 0 -33 -1 -5 -1
0 0 0 0 0 0 0 0 0 0 0 0 0 0 0 0 0 0 0 0 0 0 0 0 0 0 0 0 0 0 0 0 0 0 0 0 0 0 0 0 -17 -5 -2
0 0 0 0 0 0 0 0 0 0 0 0 0 0 0 0 0 0 0 0 0 0 0 0 0 0 0 0 0 0 0 0 0 0 0 0 0 0 0 0 -38 -7 -2
0 0 0 0 0 0 0 0 0 0 0 0 0 0 0 0 0 0 0 0 0 0 0 0 0 0 0 0 0 0 0 0 0 0 0 0 0 0 0 0 0 -15 -10
0 0 0 0 0 0 0 0 0 0 0 0 0 0 0 0 0 0 0 0 0 0 0 0 0 0 0 0 0 0 0 0 0 0 0 0 0 0 0 0 0 0 0
0 0 0 0 0 0 0 0 0 0 0 0 0 0 0 0 0 0 0 0 0 0 0 0 0 0 0 0 0 0 0 0 0 0 0 0 0 0 0 0 0 0 0
0 0 0 0 0 0 0 0 0 0 0 0 0 0 0 0 0 0 0 0 0 0 0 0 0 0 0 0 0 0 0 0 0 0 0 0 0 0 0 0 0 0 0
0 0 0 0 0 0 0 0 0 0 0 0 0 0 0 0 0 0 0 0 0 0 0 0 0 0 0 0 0 0 0 0 0 0 0 0 0 0 0 0 0 0 0
0 0 0 0 0 0 0 0 0 0 0 0 0 0 0 0 0 0 0 0 0 0 0 0 0 0 0 0 0 0 0 0 0 0 0 0 0 0 0 0 0 0 0
0 0 0 0 0 0 0 0 0 0 0 0 0 0 0 0 0 0 0 0 0 0 0 0 0 0 0 0 0 0 0 0 0 0 0 0 0 0 0 0 0 0 0
0 0 0 0 0 0 0 0 0 0 0 0 0 0 0 0 0 0 0 0 0 0 0 0 0 0 0 0 0 0 0 0 0 0 0 0 0 0 0 0 0 0 0
0 0 0 0 0 0 0 0 0 0 0 0 0 0 0 0 0 0 0 0 0 0 0 0 0 0 0 0 0 0 0 0 0 0 0 0 0 0 0 0 0 0 0
Wind_Speed
12 18 25 16 14 15 15 16 16 16 15 15 16 15 15 15 15 15 15 15 15 15 15 15 14 13 13 15 15 15 14 13 12 12 11 9 6 8 7 7 7 10 12
12 15 24 22 18 16 16 16 16 17 17 17 16 16 16 15 15 14 14 14 15 15 15 14 14 13 12 13 13 13 14 14 11 8 9 7 6 4 6 5 6 9 11
14 16 18 23 21 22 19 17 17 19 18 17 17 16 16 16 15 14 14 14 14 14 14 13 13 13 12 12 11 12 14 14 13 8 8 6 5 5 4 4 4 9 11
13 15 16 21 21 21 20 21 22 23 23 21 19 18 15 14 15 14 14 13 13 13 13 12 11 11 11 11 11 11 12 12 12 10 6 6 5 4 3 2 2 6 9
13 14 16 22 22 23 23 24 24 23 24 23 23 20 20 20 18 17 16 14 13 12 12 11 10 10 9 9 9 10 11 12 10 7 7 7 6 5 2 0 2 5 7
13 14 18 22 22 22 22 23 23 24 24 24 22 23 23 23 23 23 23 23 20 18 16 13 11 10 9 8 8 8 8 9 8 7 6 6 6 9 8 1 0 2 4
13 13 14 20 22 23 23 23 24 23 24 24 23 23 23 22 22 22 22 22 22 21 20 20 18 13 11 9 8 8 7 6 6 5 6 6 6 11 11 7 6 5 6
12 12 13 15 20 23 24 24 24 24 24 24 24 23 23 23 23 23 22 22 21 20 20 20 19 19 17 13 11 10 7 7 5 5 5 5 9 12 12 11 9 8 7
13 13 13 13 15 18 22 23 24 25 25 25 25 24 23 23 23 23 23 23 22 21 21 21 21 21 19 17 17 16 11 9 8 5 6 4 6 12 12 11 10 9 8
14 13 13 12 12 12 13 23 23 25 25 25 25 24 24 22 23 24 25 25 25 24 23 22 22 21 20 19 18 17 13 8 8 8 6 5 12 11 11 11 8 10 10
12 15 13 13 12 12 13 14 18 22 23 22 20 22 16 12 15 17 20 23 23 23 23 23 23 22 21 17 18 18 11 6 7 6 5 10 14 14 13 11 9 11 12
13 13 12 13 13 12 11 13 14 13 12 14 15 15 11 13 13 13 16 22 22 24 22 23 22 20 17 10 9 12 7 10 6 6 5 13 15 16 15 13 12 11 13
10 11 13 12 12 12 11 8 7 7 8 9 15 14 12 10 10 10 8 9 11 17 10 14 13 10 15 11 10 9 10 9 6 6 7 13 14 16 17 15 14 12 13
12 12 12 13 12 13 8 9 9 9 9 9 11 15 11 8 11 10 9 11 10 10 13 12 9 12 13 13 13 13 12 9 7 7 8 13 16 15 16 16 17 15 14
12 10 11 11 11 10 11 8 9 10 9 10 10 13 11 10 10 10 10 9 10 11 10 11 11 11 12 13 12 13 13 13 12 7 8 14 16 18 16 16 16 18 17
8 9 9 11 10 10 10 11 8 8 8 8 9 11 13 10 10 9 9 10 10 10 10 10 11 11 10 11 13 13 13 12 13 14 9 11 18 16 18 17 15 16 18
7 7 9 9 9 10 9 8 7 8 8 8 8 11 12 11 11 10 8 9 9 9 11 10 11 11 10 11 13 12 11 13 12 14 12 11 11 15 15 17 18 16 16
7 9 9 7 9 9 8 7 6 7 7 8 8 8 11 11 11 9 8 9 10 9 9 9 10 11 11 11 12 12 12 13 15 14 12 10 10 10 12 16 15 17 16
7 7 8 9 10 9 8 5 6 7 7 6 6 7 11 11 11 9 8 8 10 8 8 9 9 10 12 12 12 13 12 12 13 12 15 14 14 12 9 14 15 14 15
6 7 7 7 8 7 4 3 4 5 6 6 8 9 12 10 13 10 9 10 10 9 9 10 12 10 10 11 14 13 11 12 12 11 11 10 10 11 10 12 10 9 12
5 6 7 7 8 7 6 4 3 6 6 6 7 10 11 11 12 11 9 9 9 9 11 11 10 13 10 10 10 12 11 12 10 6 6 7 6 8 10 10 8 7 7
5 5 6 6 7 8 6 4 3 4 3 3 7 9 10 12 11 10 10 10 11 9 11 11 11 9 8 9 8 11 9 8 4 11 9 7 9 9 11 11 11 13 11
5 4 5 6 7 7 7 4 4 3 4 4 9 9 11 12 12 11 11 9 10 9 9 11 10 11 9 9 8 5 7 6 14 6 10 13 11 11 11 10 13 13 13
5 4 5 5 6 7 7 6 7 6 7 5 7 8 10 11 11 10 10 10 10 8 10 10 9 10 10 10 8 6 9 11 7 13 5 12 15 14 14 10 11 13 12
5 4 4 5 5 5 6 7 6 6 5 7 7 11 11 11 11 12 11 12 11 8 11 12 12 11 10 10 9 9 11 10 12 11 17 10 10 11 13 13 12 10 15
5 4 4 4 4 6 6 7 7 7 9 8 10 9 8 9 9 12 13 12 12 11 12 11 13 14 13 12 11 11 11 10 10 11 14 16 16 12 12 12 13 10 9
Wind_Direction
341 331 337 17 46 60 62 60 59 56 56 62 60 57 57 57 58 54 53 51 49 48 46 47 49 49 45 42 42 42 36 33 31 36 39 34 93 104 106 115 116 105 103
316 331 342 25 31 44 51 54 53 50 47 51 51 53 54 54 51 52 50 48 47 46 44 42 43 44 45 45 43 37 29 24 21 32 38 47 34 71 105 119 114 116 108
354 354 344 23 35 35 46 52 55 53 49 44 46 47 50 52 49 42 43 43 42 41 41 39 38 39 35 36 41 38 31 29 22 26 27 45 52 40 75 95 126 124 117
1 0 348 28 38 42 48 47 49 47 44 39 36 40 45 46 50 45 41 38 36 33 33 32 31 32 34 30 26 30 32 33 30 18 15 13 20 40 56 67 109 133 122
16 5 359 29 40 43 46 51 51 47 46 44 43 41 36 37 38 37 34 31 28 24 22 21 20 18 19 20 22 22 19 19 28 19 12 3 345 353 6 308 171 145 143
24 17 10 30 42 49 49 49 50 47 47 47 46 43 43 42 39 38 36 32 28 23 16 12 11 5 1 4 5 9 18 17 1 4 1 359 350 326 308 256 298 140 175
26 27 27 26 41 51 51 51 49 47 46 46 45 44 44 43 41 38 36 33 31 27 22 15 8 1 358 351 348 354 4 11 357 350 343 340 330 327 313 254 229 216 213
34 28 33 29 39 45 46 48 48 47 46 44 42 42 41 40 39 38 34 33 30 28 24 21 17 12 1 353 348 345 353 354 333 327 323 322 324 323 313 293 227 231 227
37 33 29 28 35 40 46 47 47 45 43 41 38 37 37 36 35 34 30 27 25 24 22 21 20 17 14 14 8 2 356 345 324 322 312 302 311 319 314 316 240 235 240
39 35 29 29 28 42 42 42 44 43 40 38 33 32 31 30 28 26 25 21 21 17 15 15 15 15 12 13 14 8 356 344 340 323 311 304 306 304 312 319 270 246 243
33 32 26 28 29 34 42 38 39 41 39 37 32 29 31 29 25 26 23 22 20 18 15 12 10 8 4 4 6 1 355 359 346 333 320 318 308 303 297 305 291 258 258
33 27 25 28 30 35 41 36 40 37 37 36 31 27 28 28 24 23 21 19 16 12 10 7 6 6 5 357 351 354 355 345 343 337 326 326 319 309 298 289 291 260 256
40 41 29 30 35 40 40 41 38 40 34 33 31 28 26 25 20 21 15 13 10 8 8 3 2 5 355 351 349 343 338 340 336 330 326 331 327 323 308 290 289 258 248
49 39 33 31 39 41 43 43 42 37 35 34 29 26 24 22 19 18 16 12 11 4 360 0 354 350 349 346 343 336 336 332 325 320 317 323 323 318 314 300 290 277 244
56 44 39 38 41 41 48 45 44 42 37 33 31 27 25 23 19 12 13 10 9 1 359 354 351 347 343 342 339 334 329 325 321 316 311 311 311 313 309 303 294 285 255
60 46 40 41 38 43 46 46 44 44 40 39 36 30 28 25 18 13 10 8 5 360 354 349 345 343 336 336 330 330 322 318 317 312 305 303 304 301 304 300 291 282 273
70 55 45 47 38 45 47 46 46 40 39 36 31 28 26 24 16 11 6 3 1 354 349 348 343 340 334 332 325 321 317 315 308 306 303 296 295 294 290 295 297 289 277
85 65 56 45 42 42 42 42 42 37 39 33 28 22 20 19 14 9 5 1 354 351 349 348 346 337 335 331 323 317 314 307 303 298 293 292 291 290 290 282 282 289 286
85 76 59 44 39 33 32 38 41 40 38 32 24 20 15 13 9 5 1 354 351 349 349 346 342 339 329 327 320 313 305 302 299 294 289 285 285 286 289 288 285 278 281
91 76 69 56 41 30 23 19 32 35 28 23 18 12 6 4 3 0 355 352 350 345 344 344 339 338 326 324 318 305 304 294 286 286 291 296 296 300 305 301 300 299 290
94 80 61 54 37 33 21 6 7 7 7 13 9 1 1 359 357 353 351 344 344 342 336 336 334 335 334 341 320 322 300 289 285 303 320 322 356 1 352 348 340 331 326
119 88 69 55 42 35 28 14 356 336 333 333 355 352 353 346 346 341 341 338 338 333 331 333 334 329 327 347 322 306 326 314 29 323 312 329 343 341 337 339 347 346 339
119 101 69 49 43 37 25 13 359 328 327 338 350 343 341 336 335 336 332 327 325 324 320 322 324 321 317 319 320 306 314 312 331 278 322 310 327 324 321 329 325 326 323
133 106 77 52 41 32 21 19 21 9 346 334 322 314 318 324 321 318 314 315 312 311 307 307 308 308 304 305 310 272 269 286 302 308 284 317 307 305 308 315 317 309 315
138 110 79 50 42 22 13 15 5 351 324 309 311 316 321 319 317 315 313 314 309 307 301 298 299 297 290 287 284 284 280 275 269 273 293 292 289 299 303 302 300 309 300
137 106 97 38 23 9 5 358 353 335 326 324 323 322 321 316 314 312 310 309 306 302 300 299 297 288 283 278 276 271 269 270 275 277 284 290 288 288 290 297 291 289 303